Date String (YYYY-MM-DD hh:mm:ss) UTC,Instrument flags,Ambient pressure (hPa),Sample flow (lpm),Bypass flow (lpm),Sample temperature (°C),Ambient temperature (°C),ASC tube jacket temperature (°C),LED temperature (°C),Box temperature (°C),Sample RH (%),Span deviation,Mass concentration (μg/m³),Mass concentration (μg/m³),Mass concentration (μg/m³)
DateTimeUTC,F1_M11,P_M11,Q1_M11,Q2_M11,T1_M11,T2_M11,T3_M11,T4_M11,T5_M11,U1_M11,ZSPAN_M11,X0_M11,X2_M11,X1_M11
2021-12-25 02:00:00,,0811.6,5.01,0.00,22.5,21.8,00.0,31.4,24.2,15.1,0000.0,0000.87,0000.76,0000.74
2021-12-25 02:01:00,,0811.6,4.99,0.00,22.5,21.8,00.0,31.4,24.2,15.1,0000.0,0000.94,0000.80,0000.76
2021-12-25 02:02:00,,0811.7,5.01,0.00,22.5,21.8,00.0,31.4,24.3,15.2,0000.0,0000.97,0000.83,0000.78
2021-12-25 02:03:00,,0811.7,4.99,0.00,22.5,21.8,00.0,31.4,24.3,15.1,0000.0,0001.01,0000.85,0000.80
2021-12-25 02:04:00,,0811.7,4.99,0.00,22.5,21.9,00.0,31.4,24.3,15.1,0000.0,0001.04,0000.87,0000.82
2021-12-25 02:05:00,,0811.7,5.00,0.00,22.5,21.9,00.0,31.4,24.3,15.1,0000.0,0001.08,0000.89,0000.84
2021-12-25 02:06:00,,0811.7,5.01,0.00,22.5,21.9,00.0,31.5,24.3,15.1,0000.0,0001.19,0000.91,0000.84
2021-12-25 02:07:00,,0811.7,5.01,0.00,22.5,21.8,00.0,31.4,24.3,15.1,0000.0,0001.20,0000.92,0000.84
2021-12-25 02:08:00,,0811.7,4.99,0.00,22.5,21.8,00.0,31.4,24.3,15.1,0000.0,0001.27,0000.96,0000.87
2021-12-25 02:09:00,,0811.7,5.01,0.00,22.5,21.8,00.0,31.4,24.2,15.3,0000.0,0001.33,0000.99,0000.89
2021-12-25 02:10:00,,0811.6,4.99,0.00,22.5,21.8,00.0,31.5,24.2,15.3,0000.0,0001.59,0001.02,0000.90
2021-12-25 02:11:00,,0811.6,5.01,0.00,22.5,21.8,00.0,31.5,24.2,15.3,0000.0,0002.71,0001.02,0000.91
2021-12-25 02:12:00,,0811.6,5.01,0.00,22.5,21.8,00.0,31.5,24.2,15.4,0000.0,0002.69,0001.02,0000.92
2021-12-25 02:13:00,,0811.6,4.99,0.00,22.5,21.8,00.0,31.5,24.2,15.4,0000.0,0002.77,0001.06,0000.94
2021-12-25 02:14:00,,0811.6,5.00,0.00,22.5,21.9,00.0,31.5,24.3,15.3,0000.0,0002.93,0001.10,0000.97
2021-12-25 02:15:00,,0811.6,5.01,0.00,22.5,21.9,00.0,31.5,24.3,15.2,0000.0,0003.12,0001.14,0000.99
2021-12-25 02:16:00,,0811.6,4.99,0.00,22.5,21.9,00.0,31.5,24.3,15.2,0000.0,0003.24,0001.20,0001.01
2021-12-25 02:17:00,,0811.6,5.01,0.00,22.5,21.9,00.0,31.5,24.3,15.1,0000.0,0003.23,0001.23,0001.04
2021-12-25 02:18:00,,0811.6,5.00,0.00,22.5,21.9,00.0,31.5,24.3,15.0,0000.0,0003.30,0001.28,0001.08
2021-12-25 02:19:00,,0811.6,4.99,0.00,22.5,21.9,00.0,31.5,24.3,15.0,0000.0,0003.29,0001.29,0001.10
2021-12-25 02:20:00,,0811.6,4.99,0.00,22.6,21.9,00.0,31.5,24.3,14.9,0000.0,0003.26,0001.27,0001.09
2021-12-25 02:21:00,,0811.6,5.01,0.00,22.5,21.8,00.0,31.5,24.3,15.0,0000.0,0003.05,0001.25,0001.08
2021-12-25 02:22:00,,0811.6,4.99,0.00,22.5,21.8,00.0,31.5,24.2,14.9,0000.0,0001.84,0001.23,0001.07
2021-12-25 02:23:00,,0811.6,5.00,0.00,22.5,21.8,00.0,31.5,24.2,14.9,0000.0,0001.88,0001.25,0001.06
2021-12-25 02:24:00,,0811.6,5.00,0.00,22.5,21.8,00.0,31.5,24.2,14.9,0000.0,0001.82,0001.22,0001.05
2021-12-25 02:25:00,,0811.6,4.99,0.00,22.5,21.7,00.0,31.5,24.2,14.7,0000.0,0001.68,0001.19,0001.03
2021-12-25 02:26:00,,0811.6,5.02,0.00,22.5,21.7,00.0,31.5,24.2,14.7,0000.0,0001.54,0001.16,0000.98
2021-12-25 02:27:00,,0811.6,5.00,0.00,22.4,21.7,00.0,31.5,24.2,14.4,0000.0,0001.39,0001.08,0000.94
2021-12-25 02:28:00,,0811.6,5.01,0.00,22.4,21.7,00.0,31.5,24.2,13.7,0000.0,0001.24,0000.98,0000.88
2021-12-25 02:29:00,,0811.6,5.00,0.00,22.4,21.7,00.0,31.5,24.1,13.3,0000.0,0001.11,0000.89,0000.79
2021-12-25 02:30:00,,0811.6,5.01,0.00,22.4,21.7,00.0,31.5,24.1,13.2,0000.0,0001.02,0000.80,0000.70
2021-12-25 02:31:00,,0811.6,5.00,0.00,22.4,21.6,00.0,31.4,24.0,13.1,0000.0,0000.96,0000.74,0000.63
2021-12-25 02:32:00,,0811.6,5.00,0.00,22.3,21.6,00.0,31.4,24.0,13.1,0000.0,0000.89,0000.67,0000.57
2021-12-25 02:33:00,,0811.6,5.01,0.00,22.3,21.5,00.0,31.4,23.9,13.1,0000.0,0000.87,0000.63,0000.52
2021-12-25 02:34:00,,0811.6,4.99,0.00,22.3,21.5,00.0,31.4,23.9,13.1,0000.0,0000.79,0000.57,0000.46
2021-12-25 02:35:00,,0811.6,5.00,0.00,22.3,21.5,00.0,31.4,23.9,13.1,0000.0,0000.71,0000.51,0000.41
2021-12-25 02:36:00,,0811.6,5.01,0.00,22.2,21.5,00.0,31.4,23.9,13.2,0000.0,0000.65,0000.46,0000.37
2021-12-25 02:37:00,,0811.6,4.99,0.00,22.2,21.5,00.0,31.4,23.9,13.3,0000.0,0000.58,0000.41,0000.33
2021-12-25 02:38:00,,0811.6,4.99,0.00,22.2,21.5,00.0,31.4,23.9,13.3,0000.0,0000.54,0000.38,0000.31
2021-12-25 02:39:00,,0811.7,5.01,0.00,22.2,21.4,00.0,31.3,23.9,13.3,0000.0,0000.52,0000.37,0000.30
2021-12-25 02:40:00,,0811.7,5.00,0.00,22.2,21.4,00.0,31.3,23.8,13.4,0000.0,0000.52,0000.37,0000.30
2021-12-25 02:41:00,,0811.7,4.99,0.00,22.2,21.4,00.0,31.3,23.9,13.4,0000.0,0000.53,0000.38,0000.31
2021-12-25 02:42:00,,0811.7,5.01,0.00,22.2,21.4,00.0,31.3,23.9,13.4,0000.0,0000.49,0000.37,0000.31
2021-12-25 02:43:00,,0811.7,5.00,0.00,22.2,21.5,00.0,31.3,23.9,13.5,0000.0,0000.50,0000.38,0000.32
2021-12-25 02:44:00,,0811.7,5.01,0.00,22.2,21.5,00.0,31.3,23.9,13.5,0000.0,0000.49,0000.38,0000.33
2021-12-25 02:45:00,,0811.7,4.98,0.00,22.2,21.5,00.0,31.3,23.9,13.5,0000.0,0000.47,0000.38,0000.34
2021-12-25 02:46:00,,0811.7,5.01,0.00,22.2,21.5,00.0,31.3,23.9,13.6,0000.0,0000.46,0000.38,0000.35
2021-12-25 02:47:00,,0811.7,5.00,0.00,22.2,21.5,00.0,31.3,23.9,13.5,0000.0,0000.46,0000.37,0000.35
2021-12-25 02:48:00,,0811.7,4.98,0.00,22.2,21.5,00.0,31.3,23.8,13.6,0000.0,0000.44,0000.37,0000.34
2021-12-25 02:49:00,,0811.7,5.01,0.00,22.1,21.5,00.0,31.2,23.8,13.6,0000.0,0000.41,0000.35,0000.34
2021-12-25 02:50:00,,0811.7,4.99,0.00,22.1,21.4,00.0,31.2,23.7,13.6,0000.0,0000.41,0000.35,0000.34
2021-12-25 02:51:00,,0811.7,4.99,0.00,22.1,21.4,00.0,31.2,23.7,13.7,0000.0,0000.41,0000.35,0000.34
2021-12-25 02:52:00,,0811.7,5.01,0.00,22.0,21.4,00.0,31.2,23.6,13.7,0000.0,0000.43,0000.36,0000.35
2021-12-25 02:53:00,,0811.6,5.00,0.00,22.0,21.3,00.0,31.2,23.6,13.7,0000.0,0000.49,0000.39,0000.36
2021-12-25 02:54:00,,0811.6,4.99,0.00,22.0,21.3,00.0,31.2,23.6,13.7,0000.0,0000.50,0000.40,0000.38
2021-12-25 02:55:00,,0811.6,5.02,0.00,21.9,21.2,00.0,31.2,23.5,13.8,0000.0,0000.49,0000.40,0000.38
2021-12-25 02:56:00,,0811.6,4.99,0.00,21.9,21.2,00.0,31.1,23.5,13.8,0000.0,0000.49,0000.40,0000.38
2021-12-25 02:57:00,,0811.5,5.00,0.00,21.9,21.1,00.0,31.1,23.4,13.7,0000.0,0000.50,0000.40,0000.37
2021-12-25 02:58:00,,0811.6,5.00,0.00,21.9,21.1,00.0,31.1,23.4,13.8,0000.0,0000.57,0000.41,0000.37
2021-12-25 02:59:00,,0811.6,5.01,0.00,21.8,21.1,00.0,31.1,23.4,13.5,0000.0,0000.56,0000.41,0000.37
